TimeMST,TemperatureF,Dew PointF,Humidity,Sea Level PressureIn,VisibilityMPH,Wind Direction,Wind SpeedMPH,Gust SpeedMPH,PrecipitationIn,Events,Conditions,WindDirDegrees,DateUTC
12:56 AM,33.1,32.0,96,29.70,-9999.0,WNW,21.9,-,0.02,,Unknown,300,2013-03-04 07:56:00
1:56 AM,33.1,30.9,92,29.72,-9999.0,WNW,18.4,-,N/A,,Unknown,300,2013-03-04 08:56:00
2:56 AM,32.0,30.0,92,29.73,-9999.0,WNW,18.4,-,N/A,,Unknown,290,2013-03-04 09:56:00
3:56 AM,30.9,26.1,82,29.74,-9999.0,WNW,20.7,27.6,N/A,,Unknown,290,2013-03-04 10:56:00
4:56 AM,27.0,21.0,78,29.73,-9999.0,WNW,20.7,-,N/A,,Unknown,300,2013-03-04 11:56:00
5:56 AM,24.1,19.0,81,29.79,-9999.0,West,15.0,20.7,N/A,,Unknown,260,2013-03-04 12:56:00
6:56 AM,26.1,19.0,75,29.82,-9999.0,West,28.8,39.1,N/A,,Unknown,280,2013-03-04 13:56:00
7:56 AM,26.1,19.9,78,29.83,-9999.0,West,27.6,36.8,N/A,,Unknown,280,2013-03-04 14:56:00
8:56 AM,27.0,19.9,75,29.84,-9999.0,West,25.3,38.0,N/A,,Unknown,280,2013-03-04 15:56:00
9:56 AM,27.0,19.9,75,29.86,-9999.0,West,26.5,38.0,N/A,,Unknown,280,2013-03-04 16:56:00
10:56 AM,26.1,19.0,75,29.86,-9999.0,West,32.2,39.1,N/A,,Unknown,270,2013-03-04 17:56:00
11:56 AM,25.0,17.1,72,29.86,-9999.0,WNW,31.1,41.4,N/A,,Unknown,290,2013-03-04 18:56:00
12:56 PM,25.0,17.1,72,29.86,-9999.0,West,35.7,44.9,N/A,,Unknown,280,2013-03-04 19:56:00
1:56 PM,23.0,19.9,88,29.88,-9999.0,WNW,36.8,43.7,N/A,,Unknown,290,2013-03-04 20:56:00
2:56 PM,21.9,18.0,85,29.92,-9999.0,NW,34.5,46.0,N/A,,Unknown,310,2013-03-04 21:56:00
3:56 PM,21.0,16.0,81,29.98,-9999.0,NW,38.0,47.2,N/A,,Unknown,310,2013-03-04 22:56:00
4:56 PM,21.0,17.1,85,30.03,-9999.0,NW,38.0,47.2,N/A,,Unknown,310,2013-03-04 23:56:00
5:56 PM,19.0,15.1,85,30.09,-9999.0,NW,35.7,50.6,N/A,,Unknown,320,2013-03-05 00:56:00
6:56 PM,17.1,12.0,81,30.12,-9999.0,NW,40.3,50.6,N/A,,Unknown,310,2013-03-05 01:56:00
7:56 PM,17.1,10.9,77,30.16,-9999.0,NW,40.3,54.1,N/A,,Unknown,310,2013-03-05 02:56:00
8:56 PM,17.1,10.9,77,30.20,-9999.0,NW,36.8,48.3,N/A,,Unknown,310,2013-03-05 03:56:00
9:56 PM,15.1,9.0,77,30.22,-9999.0,NW,35.7,48.3,N/A,,Unknown,310,2013-03-05 04:56:00
10:56 PM,14.0,8.1,77,30.27,-9999.0,NW,31.1,41.4,N/A,,Unknown,310,2013-03-05 05:56:00
11:56 PM,12.9,8.1,81,30.30,-9999.0,NW,27.6,36.8,N/A,,Unknown,310,2013-03-05 06:56:00